Date Time,Air Temp,Sky Temp,Clarity,Light Level,Rain Sensor,Readings
2020-03-31 00:00:05,17.3,-18.7,36.0,0.0,2.3,112
2020-03-31 00:05:05,17.3,-18.9,36.1,0.0,2.3,111
2020-03-31 00:10:05,17.2,-18.9,36.0,0.0,2.3,112
2020-03-31 00:15:05,17.1,-18.9,36.0,0.0,2.3,112
2020-03-31 00:20:05,17.1,-18.7,35.7,0.0,2.3,112
2020-03-31 00:25:05,17.0,-18.5,35.6,0.0,2.3,112
2020-03-31 00:30:05,17.0,-18.6,35.6,0.0,2.3,111
2020-03-31 00:35:05,17.0,-18.8,35.7,0.0,2.3,112
2020-03-31 00:40:05,16.9,-18.7,35.6,0.0,2.3,112
2020-03-31 00:45:05,16.9,-18.8,35.7,0.0,2.3,112
2020-03-31 00:50:05,16.9,-18.6,35.5,0.0,2.3,112
2020-03-31 00:55:05,16.9,-16.4,33.3,0.0,2.3,111
2020-03-31 01:00:05,16.9,-10.7,27.6,0.0,2.3,112
2020-03-31 01:05:05,17.0,-14.5,31.5,0.0,2.3,111
2020-03-31 01:10:05,16.9,-16.3,33.2,0.0,2.3,111
2020-03-31 01:15:05,16.9,-10.9,27.8,0.0,2.3,112
2020-03-31 01:20:05,16.9,-17.5,34.4,0.0,2.3,111
2020-03-31 01:25:05,16.9,-10.3,27.2,0.0,2.3,112
2020-03-31 01:30:05,16.9,-8.4,25.4,0.0,2.3,112
2020-03-31 01:35:05,17.0,-11.8,28.8,0.0,2.3,111
2020-03-31 01:40:05,17.0,-16.2,33.2,0.0,2.3,111
2020-03-31 01:45:05,16.9,-12.1,29.1,0.0,2.3,112
2020-03-31 01:50:05,17.0,-9.4,26.4,0.0,2.3,112
2020-03-31 01:55:05,17.0,-9.7,26.7,0.0,2.3,111
2020-03-31 02:00:05,17.0,-12.2,29.2,0.0,2.3,111
2020-03-31 02:05:05,17.0,-15.6,32.6,0.0,2.3,112
2020-03-31 02:10:05,16.9,-16.4,33.4,0.0,2.3,111
2020-03-31 02:15:05,16.9,-17.6,34.4,0.0,2.3,112
2020-03-31 02:20:05,16.9,-18.1,35.0,0.0,2.4,112
2020-03-31 02:25:05,16.9,-18.6,35.5,0.0,2.4,111
2020-03-31 02:30:05,16.9,-14.8,31.7,0.0,2.4,112
2020-03-31 02:35:05,16.9,-13.0,30.0,0.0,2.3,111
2020-03-31 02:40:05,16.9,-12.2,29.1,0.0,2.3,111
2020-03-31 02:45:05,17.0,-13.6,30.5,0.0,2.3,111
2020-03-31 02:50:05,17.0,-12.9,29.9,0.0,2.3,112
2020-03-31 02:55:05,16.9,-11.8,28.8,0.0,2.3,112
2020-03-31 03:00:05,17.0,-12.0,29.0,0.0,2.3,111
2020-03-31 03:05:05,17.0,-9.7,26.8,0.0,2.3,111
2020-03-31 03:10:05,17.0,-17.3,34.3,0.0,2.3,112
2020-03-31 03:15:05,16.9,-15.0,31.9,0.0,2.3,111
2020-03-31 03:20:05,16.9,-16.4,33.3,0.0,2.3,112
2020-03-31 03:25:05,16.8,-18.2,35.0,0.0,2.3,111
2020-03-31 03:30:05,16.8,-18.2,35.0,0.0,2.3,112
2020-03-31 03:35:05,16.8,-12.3,29.2,0.0,2.3,111
2020-03-31 03:40:05,16.9,-11.1,27.9,0.0,2.3,112
2020-03-31 03:45:05,16.9,-8.8,25.7,0.0,2.3,112
2020-03-31 03:50:05,16.9,-11.6,28.5,0.0,2.3,111
2020-03-31 03:55:05,16.9,-12.9,29.8,0.0,2.3,112
2020-03-31 04:00:05,16.8,-14.7,31.6,0.0,2.4,112
2020-03-31 04:05:05,16.7,-18.9,35.6,0.0,2.4,112
2020-03-31 04:10:05,16.4,-19.9,36.4,0.0,2.4,111
2020-03-31 04:15:05,16.3,-19.9,36.2,0.0,2.3,112
2020-03-31 04:20:05,16.1,-20.1,36.2,0.0,2.3,112
2020-03-31 04:25:05,16.1,-20.0,36.1,0.0,2.2,112
2020-03-31 04:30:05,16.0,-20.3,36.3,0.0,2.2,112
2020-03-31 04:35:05,15.9,-20.4,36.2,0.0,2.2,111
2020-03-31 04:40:05,15.8,-20.5,36.4,0.0,2.2,112
2020-03-31 04:45:05,15.8,-20.8,36.6,0.0,2.1,112
2020-03-31 04:50:05,15.7,-20.9,36.6,0.0,2.1,111
2020-03-31 04:55:05,15.7,-21.0,36.7,0.0,2.1,112
2020-03-31 05:00:05,15.6,-21.0,36.6,0.0,2.1,111
2020-03-31 05:05:05,15.8,-21.1,36.8,0.0,2.1,112
2020-03-31 05:10:05,15.6,-21.2,36.8,0.0,2.1,111
2020-03-31 05:15:05,15.6,-21.2,36.7,0.0,2.0,112
2020-03-31 05:20:05,15.6,-21.1,36.7,0.0,2.0,111
2020-03-31 05:25:05,15.6,-21.0,36.6,0.0,2.0,112
2020-03-31 05:30:05,15.6,-21.2,36.8,0.0,1.9,112
2020-03-31 05:35:05,15.5,-21.3,36.8,0.0,1.9,111
2020-03-31 05:40:05,15.5,-21.6,37.1,0.0,1.9,112
2020-03-31 05:45:05,15.5,-21.5,37.0,0.0,2.0,111
2020-03-31 05:50:05,15.4,-21.6,37.1,0.1,2.0,111
2020-03-31 05:55:05,15.5,-21.4,36.9,0.3,1.9,112
2020-03-31 06:00:05,15.5,-21.6,37.1,0.7,2.0,112
2020-03-31 06:05:02,15.6,-21.5,37.1,1.8,1.9,51
2020-03-31 06:10:02,15.5,-21.5,37.0,3.1,2.0,111
2020-03-31 06:15:02,15.5,-21.3,36.8,6.4,1.8,112
2020-03-31 06:20:02,15.4,-21.3,36.8,11.5,1.8,112
2020-03-31 06:25:02,15.4,-21.4,36.8,17.8,1.8,112
2020-03-31 06:30:02,15.4,-21.5,36.9,23.2,1.8,111
2020-03-31 06:35:02,15.4,-21.4,36.7,26.8,1.8,111
2020-03-31 06:40:02,15.4,-21.2,36.6,28.9,1.8,111
2020-03-31 06:45:02,15.4,-21.4,36.7,30.1,1.8,112
2020-03-31 06:50:02,15.4,-21.3,36.7,30.8,1.7,111
2020-03-31 06:55:02,15.4,-21.2,36.6,31.2,1.8,112
2020-03-31 07:00:02,15.5,-21.0,36.5,31.5,1.8,111
2020-03-31 07:05:02,15.5,-21.4,36.9,31.7,1.8,112
2020-03-31 07:10:02,15.6,-21.2,36.9,31.8,2.0,111
2020-03-31 07:15:02,15.8,-21.0,36.8,31.9,2.2,112
2020-03-31 07:20:02,16.0,-21.1,37.2,32.0,2.2,111
2020-03-31 07:25:02,16.2,-20.9,37.0,32.0,2.2,112
2020-03-31 07:30:02,16.1,-21.0,37.1,32.1,2.3,111
2020-03-31 07:35:02,16.2,-20.7,36.8,32.1,2.2,112
2020-03-31 07:40:02,16.2,-19.9,36.1,32.1,2.3,112
2020-03-31 07:45:02,16.3,-19.9,36.1,32.1,2.3,112
2020-03-31 07:50:02,16.3,-20.8,37.1,32.1,2.3,111
2020-03-31 07:55:02,16.0,-20.8,36.9,32.1,2.3,112
2020-03-31 08:00:02,16.3,-20.6,36.9,32.2,2.3,111
2020-03-31 08:05:02,16.3,-20.5,36.8,32.2,2.4,112
2020-03-31 08:10:02,16.1,-15.0,31.1,32.3,2.4,112
2020-03-31 08:15:02,16.6,-11.1,27.7,32.3,2.4,111
2020-03-31 08:20:02,16.8,-14.2,31.0,32.3,2.4,111
2020-03-31 08:25:02,16.8,-9.5,26.3,32.4,2.3,112
2020-03-31 08:30:02,17.0,-11.4,28.4,32.3,2.3,111
2020-03-31 08:35:02,17.0,-14.8,31.8,32.3,2.3,112
2020-03-31 08:40:02,17.1,-10.8,27.9,32.4,2.3,111
2020-03-31 08:45:02,17.3,-7.8,25.1,32.4,2.3,112
2020-03-31 08:50:02,17.4,-10.4,27.9,32.4,2.3,112
2020-03-31 08:55:02,17.6,-15.9,33.5,32.3,2.3,111
2020-03-31 09:00:02,17.6,-15.8,33.4,32.3,2.3,112
2020-03-31 09:05:02,17.9,-12.6,30.5,32.4,2.3,112
2020-03-31 09:10:03,18.1,-9.6,27.8,32.4,2.3,111
2020-03-31 09:15:03,18.3,-8.7,27.0,32.4,2.3,112
2020-03-31 09:20:03,18.5,-12.0,30.5,32.4,2.3,112
2020-03-31 09:25:03,18.5,-17.7,36.2,32.3,2.3,111
2020-03-31 09:30:03,18.4,-18.5,36.8,32.3,2.3,112
2020-03-31 09:35:03,18.4,-17.2,35.6,32.4,2.3,112
2020-03-31 09:40:03,18.5,-6.7,25.2,32.5,2.3,112
2020-03-31 09:45:03,17.0,-0.9,17.9,32.5,2.3,111
2020-03-31 09:50:03,16.9,-6.1,23.0,32.4,2.3,112
2020-03-31 09:55:03,18.6,-7.9,26.5,32.5,2.3,112
2020-03-31 10:00:03,19.2,-9.0,28.2,32.5,2.3,112
2020-03-31 10:05:03,19.4,-7.3,26.7,32.5,2.3,111
2020-03-31 10:10:03,20.0,-7.9,27.9,32.5,2.3,112
2020-03-31 10:15:03,20.3,-7.6,27.9,32.5,2.2,112
2020-03-31 10:20:03,20.4,-11.1,31.5,32.5,2.3,111
2020-03-31 10:25:03,20.7,-15.1,35.8,32.5,2.3,112
2020-03-31 10:30:03,21.0,-14.7,35.7,32.5,2.4,112
2020-03-31 10:35:03,20.9,-15.6,36.5,32.4,2.4,111
2020-03-31 10:40:03,20.3,-12.8,33.1,32.5,2.3,111
2020-03-31 10:45:03,20.2,-14.6,34.8,32.5,2.3,112
2020-03-31 10:50:03,20.2,-13.8,34.1,32.5,2.3,111
2020-03-31 10:55:03,20.4,-8.5,28.9,32.5,2.3,111
2020-03-31 11:00:03,20.7,-5.3,26.0,32.5,2.3,112
2020-03-31 11:05:03,21.5,-2.5,24.0,32.5,2.3,112
2020-03-31 11:10:03,21.9,-11.0,32.9,32.5,2.3,112
2020-03-31 11:15:03,21.7,-13.7,35.5,32.5,2.3,111
2020-03-31 11:20:03,21.7,-7.5,29.2,32.5,2.3,111
2020-03-31 11:25:03,21.3,-3.5,24.8,32.5,2.3,112
2020-03-31 11:30:03,21.0,-7.1,28.1,32.5,2.3,112
2020-03-31 11:35:03,21.0,-1.5,22.5,32.5,2.3,111
2020-03-31 11:40:03,21.0,-1.1,22.1,32.5,2.3,112
2020-03-31 11:45:03,20.8,-0.2,21.0,32.5,2.3,112
2020-03-31 11:50:03,20.9,-6.4,27.4,32.5,2.3,111
2020-03-31 11:55:03,22.0,-7.9,29.9,32.5,2.3,112
2020-03-31 12:00:03,22.8,-0.2,22.9,32.5,2.0,111
2020-03-31 12:05:03,22.4,0.4,22.0,32.5,1.8,112
2020-03-31 12:10:03,22.2,0.2,22.0,32.5,2.1,112
2020-03-31 12:15:03,21.7,-0.2,21.8,32.4,2.3,111
2020-03-31 12:20:03,21.2,0.5,20.7,32.5,2.3,112
2020-03-31 12:25:03,20.8,0.4,20.4,32.5,2.3,111
2020-03-31 12:30:03,21.4,-0.7,22.0,32.5,2.3,112
2020-03-31 12:35:03,21.9,-0.1,22.1,32.5,2.3,112
2020-03-31 12:40:03,23.1,0.3,22.7,32.6,2.1,111
2020-03-31 12:45:03,23.9,-2.0,25.9,32.5,2.4,112
2020-03-31 12:50:03,23.7,-5.0,28.7,32.5,2.5,111
2020-03-31 12:55:03,23.3,-4.0,27.3,32.5,2.3,112
2020-03-31 13:00:03,23.9,0.6,23.3,32.6,2.4,111
2020-03-31 13:05:03,24.4,0.1,24.2,32.5,2.3,112
2020-03-31 13:10:03,23.5,0.8,22.7,32.5,2.4,111
2020-03-31 13:15:03,23.1,-7.1,30.2,32.5,2.3,112
2020-03-31 13:20:03,23.6,-4.8,28.5,32.6,2.3,111
2020-03-31 13:25:03,24.8,-5.2,30.0,32.6,2.3,112
2020-03-31 13:30:03,25.4,-1.3,26.7,32.6,2.3,111
2020-03-31 13:35:03,26.9,-1.0,27.8,32.6,2.3,112
2020-03-31 13:40:03,28.2,2.8,25.4,32.6,2.3,111
2020-03-31 13:45:03,28.1,0.2,27.9,32.5,2.3,112
2020-03-31 13:50:03,25.8,-1.6,27.3,32.5,2.3,111
2020-03-31 13:55:03,24.0,-6.3,30.3,32.5,2.3,112
2020-03-31 14:00:03,24.3,-2.4,26.6,32.6,2.3,112
2020-03-31 14:05:03,25.1,3.8,21.3,32.6,2.3,111
2020-03-31 14:10:03,25.1,-1.0,26.1,32.5,2.3,112
2020-03-31 14:15:03,23.9,-6.2,30.1,32.5,2.3,112
2020-03-31 14:20:03,23.3,-6.9,30.2,32.5,2.4,111
2020-03-31 14:25:03,23.1,-4.6,27.7,32.5,2.4,112
2020-03-31 14:30:03,23.5,-8.0,31.5,32.6,2.6,112
2020-03-31 14:35:03,24.3,-4.1,28.4,32.6,2.4,111
2020-03-31 14:40:03,25.8,-0.9,26.8,32.6,2.3,112
2020-03-31 14:45:03,26.5,-2.1,28.6,32.6,2.3,111
2020-03-31 14:50:03,25.2,-8.0,33.2,32.6,2.3,111
2020-03-31 14:55:03,24.7,-8.9,33.6,32.6,2.3,111
2020-03-31 15:00:03,24.5,-8.9,33.4,32.6,2.3,113
2020-03-31 15:05:03,24.3,-9.1,33.3,32.6,2.3,111
2020-03-31 15:10:03,25.3,-4.6,29.9,32.6,2.3,112
2020-03-31 15:15:03,26.3,-8.0,34.3,32.6,2.3,111
2020-03-31 15:20:03,26.2,-6.0,32.2,32.6,2.3,112
2020-03-31 15:25:03,26.4,-5.9,32.3,32.6,2.3,111
2020-03-31 15:30:03,26.3,-5.8,32.1,32.6,2.3,112
2020-03-31 15:35:03,27.0,-1.7,28.7,32.6,2.3,111
2020-03-31 15:40:03,27.9,2.4,25.5,32.6,2.3,112
2020-03-31 15:45:03,28.0,-2.9,30.9,32.6,2.3,111
2020-03-31 15:50:03,26.1,-10.1,36.2,32.5,2.3,111
2020-03-31 15:55:03,25.0,-2.3,27.3,32.6,2.3,112
2020-03-31 16:00:03,25.4,3.4,22.0,32.6,2.3,111
2020-03-31 16:05:03,24.6,-4.1,28.7,32.5,2.3,112
2020-03-31 16:10:03,23.7,0.1,23.6,32.5,2.3,112
2020-03-31 16:15:03,22.8,-6.3,29.1,32.5,2.3,111
2020-03-31 16:20:03,23.1,-5.4,28.5,32.6,2.5,112
2020-03-31 16:25:03,24.7,-0.8,25.4,32.6,2.3,111
2020-03-31 16:30:03,24.7,1.7,23.0,32.5,2.3,112
2020-03-31 16:35:03,24.4,-0.4,24.8,32.5,2.3,111
2020-03-31 16:40:03,23.5,-3.5,27.0,32.5,2.3,112
2020-03-31 16:45:03,22.6,-11.0,33.6,32.5,2.4,111
2020-03-31 16:50:03,22.8,-6.3,29.1,32.6,2.3,112
2020-03-31 16:55:03,24.0,-5.1,29.1,32.6,2.4,112
2020-03-31 17:00:03,25.0,0.4,24.5,32.6,2.3,111
2020-03-31 17:05:03,24.9,-0.1,25.0,32.5,2.3,112
2020-03-31 17:10:03,23.6,-0.5,24.1,32.4,2.3,111
2020-03-31 17:15:03,22.6,-3.2,25.8,32.4,2.4,112
2020-03-31 17:20:03,22.0,-5.7,27.7,32.4,2.2,112
2020-03-31 17:25:03,21.6,-9.6,31.2,32.5,1.9,112
2020-03-31 17:30:03,21.4,-11.9,33.3,32.5,2.1,111
2020-03-31 17:35:03,21.3,-12.0,33.3,32.5,2.3,112
2020-03-31 17:40:03,22.0,-8.7,30.7,32.6,2.0,111
2020-03-31 17:45:03,23.0,-8.3,31.3,32.6,2.2,112
2020-03-31 17:50:03,23.8,-6.5,30.3,32.6,2.4,112
2020-03-31 17:55:03,24.2,-2.3,26.5,32.6,2.3,112
2020-03-31 18:00:03,24.6,0.1,24.4,32.6,2.3,111
2020-03-31 18:05:03,24.3,-0.8,25.1,32.5,2.3,112
2020-03-31 18:10:03,23.4,-2.4,25.7,32.4,2.3,111
2020-03-31 18:15:03,22.4,-7.4,29.8,32.4,2.3,112
2020-03-31 18:20:03,21.7,-6.7,28.5,32.4,2.0,112
2020-03-31 18:25:03,21.4,-8.9,30.3,32.4,2.0,112
2020-03-31 18:30:03,21.5,-12.6,34.1,32.5,2.2,111
2020-03-31 18:35:03,21.8,-14.2,36.0,32.5,1.9,112
2020-03-31 18:40:03,21.9,-13.8,35.7,32.5,1.9,112
2020-03-31 18:45:03,22.0,-14.5,36.4,32.5,1.9,111
2020-03-31 18:50:03,22.0,-14.0,36.0,32.5,1.9,112
2020-03-31 18:55:03,22.0,-15.1,37.1,32.5,1.9,111
2020-03-31 19:00:03,21.8,-14.8,36.6,32.5,2.0,111
2020-03-31 19:05:03,21.6,-15.7,37.3,32.4,2.2,112
2020-03-31 19:10:03,21.3,-15.5,36.8,32.3,2.3,112
2020-03-31 19:15:03,21.2,-15.8,37.0,32.2,2.3,111
2020-03-31 19:20:03,20.8,-16.7,37.5,32.1,2.3,112
2020-03-31 19:25:03,20.4,-17.1,37.5,31.9,2.3,111
2020-03-31 19:30:03,20.1,-17.0,37.1,31.6,2.5,112
2020-03-31 19:35:03,19.9,-17.0,36.9,31.2,2.3,111
2020-03-31 19:40:03,19.7,-17.2,36.9,30.6,2.3,112
2020-03-31 19:45:03,19.5,-17.2,36.8,29.6,2.2,111
2020-03-31 19:50:03,19.4,-17.2,36.6,27.9,2.1,111
2020-03-31 19:55:03,19.3,-17.2,36.5,25.0,2.2,112
2020-03-31 20:00:03,19.2,-17.0,36.3,20.4,2.3,111
2020-03-31 20:05:03,19.2,-16.7,35.9,14.2,2.3,112
2020-03-31 20:10:03,19.2,-16.2,35.4,8.4,2.3,111
2020-03-31 20:15:03,19.1,-16.7,35.8,4.5,2.3,112
2020-03-31 20:20:03,19.0,-17.0,36.0,2.2,2.3,111
2020-03-31 20:25:03,18.9,-17.4,36.3,1.1,2.3,112
2020-03-31 20:30:03,18.8,-17.6,36.4,0.6,2.3,111
2020-03-31 20:35:03,18.7,-17.8,36.5,0.3,2.3,112
2020-03-31 20:40:03,18.7,-17.4,36.1,0.1,2.3,112
2020-03-31 20:45:03,18.7,-17.3,36.0,0.1,2.3,111
2020-03-31 20:50:03,18.6,-17.1,35.7,0.0,2.3,111
2020-03-31 20:55:03,18.5,-17.0,35.5,0.0,2.3,112
2020-03-31 21:00:03,18.4,-16.8,35.3,0.0,2.3,111
2020-03-31 21:05:03,18.4,-17.1,35.5,0.0,2.3,112
2020-03-31 21:10:03,18.6,-17.5,36.1,0.0,2.3,111
2020-03-31 21:15:03,18.2,-17.5,35.7,0.0,2.3,111
2020-03-31 21:20:03,18.2,-17.5,35.7,0.0,2.3,112
2020-03-31 21:25:03,18.2,-17.6,35.7,0.0,2.3,111
2020-03-31 21:30:03,18.1,-17.9,36.0,0.0,2.3,112
2020-03-31 21:35:03,18.0,-18.4,36.4,0.0,2.3,112
2020-03-31 21:40:03,17.8,-18.7,36.5,0.0,2.3,112
2020-03-31 21:45:03,17.8,-18.9,36.7,0.0,2.3,111
2020-03-31 21:50:03,17.7,-18.8,36.5,0.0,2.3,112
2020-03-31 21:55:03,17.8,-18.3,36.1,0.0,2.3,111
2020-03-31 22:00:03,17.7,-18.7,36.5,0.0,2.3,112
2020-03-31 22:05:03,17.6,-18.8,36.4,0.0,2.3,111
2020-03-31 22:10:03,17.5,-19.2,36.7,0.0,2.3,112
2020-03-31 22:15:03,17.4,-19.4,36.8,0.0,2.3,112
2020-03-31 22:20:03,17.3,-19.3,36.6,0.0,2.3,111
2020-03-31 22:25:03,17.1,-19.6,36.7,0.0,2.3,112
2020-03-31 22:30:03,17.0,-19.7,36.8,0.0,2.3,111
2020-03-31 22:35:03,17.0,-19.9,36.8,0.0,2.3,112
2020-03-31 22:40:03,16.9,-19.9,36.8,0.0,2.3,112
2020-03-31 22:45:03,17.2,-20.0,37.2,0.0,2.3,112
2020-03-31 22:50:03,16.5,-20.1,36.7,0.0,2.3,112
2020-03-31 22:55:03,16.8,-20.3,37.1,0.0,2.3,111
2020-03-31 23:00:03,16.8,-20.1,37.0,0.0,2.3,112
2020-03-31 23:05:03,16.8,-20.1,36.9,0.0,2.3,111
2020-03-31 23:10:03,16.8,-20.0,36.8,0.0,2.3,112
2020-03-31 23:15:03,16.8,-19.9,36.7,0.0,2.3,112
2020-03-31 23:20:03,16.8,-20.1,36.8,0.0,2.3,112
2020-03-31 23:25:03,16.7,-20.3,37.0,0.0,2.4,111
2020-03-31 23:30:03,16.6,-20.5,37.1,0.0,2.4,112
2020-03-31 23:35:03,16.5,-20.5,37.0,0.0,2.4,113
2020-03-31 23:40:03,16.4,-20.4,36.9,0.0,2.4,111
2020-03-31 23:45:03,16.4,-20.5,36.9,0.0,2.4,112
2020-03-31 23:50:03,16.4,-20.4,36.8,0.0,2.4,112
2020-03-31 23:55:03,16.3,-20.4,36.7,0.0,2.4,111
